Location: Gettysburg
(39.8310°N, 77.2310°W)
Time: 16:26:36
(UTC-04:00)

Envisat - Pass Details

Date: 03 June 2023
Orbit: 763 x 764 km, 98.2° (Epoch: 24 September)

Event Time Altitude Azimuth Distance (km) Brightness Sun altitude
Rises 03:30:06 0° 38° (NE) 3,234 7.9 -19.5°
Reaches altitude 10° 03:34:37 10° 75° (ENE) 2,301 6.2 -19.0°
Maximum altitude 03:35:46 11° 89° (E) 2,250 5.9 -18.9°
Drops below altitude 10° 03:36:55 10° 102° (ESE) 2,297 5.8 -18.7°
Sets 03:41:23 0° 140° (SE) 3,216 6.1 -18.2°
